Jersey, United Kingdom

6:01 AM BST on July 25, 2017 (GMT +0100)
Jersey

Weather History for EGJJ - December, 2012

Change the Weather History Date:

Thursday, December 27, 2012

  Actual Average Record
Temperature  
Mean Temperature 49 °F -  
Max Temperature 51 °F 45 °F 55 °F (2015)
Min Temperature 47 °F 39 °F 28 °F (1996)
Degree Days  
Heating Degree Days 16    
Moisture  
Dew Point 44 °F    
Average Humidity 81    
Maximum Humidity 94    
Minimum Humidity 66    
Precipitation  
Precipitation 0.00 in - - ()
Sea Level Pressure  
Sea Level Pressure 29.86 in    
Wind  
Wind Speed 24 mph ()    
Max Wind Speed 41 mph    
Max Gust Speed 55 mph    
Visibility 7.0 miles    
Events Rain , Hail    
Averages and records for this station are not official NWS values.
T = Trace of Precipitation, MM = Missing Value Source: Averaged Metar Reports

Daily Weather History Graph

Daily Weather History Graph

Search for Another Location

Airport or City:

Trip Planner

Search our weather history database for the weather conditions in past years. The results will help you decide how hot, cold, wet, or windy it might be!

Date:

Astronomy

Dec. 27, 2012 Rise Set
Actual Time 8:03 AM GMT 4:16 PM GMT
Civil Twilight 7:25 AM GMT 4:54 PM GMT
Nautical Twilight 6:45 AM GMT 5:35 PM GMT
Astronomical Twilight 6:06 AM GMT 6:13 PM GMT
Moon 3:50 PM GMT (12/27) 7:00 AM GMT (12/27)
Length of Visible Light 9h 28m
Length of Day
8h 13m
Waxing Gibbous, 99% of the Moon is Illuminated
Dec 27
Waxing Gibbous
Dec 28
Full
Jan 5
Last Quarter
Jan 11
New
Jan 18
First Quarter

Hourly Weather History & Observations

Time (GMT) Temp. Dew Point Humidity Pressure Visibility Wind Dir Wind Speed Gust Speed Precip Events Conditions
12:00 AM 50 °F 47 °F 85% 29.83 in 16 mi WSW 15.0 mph - -   Partly Cloudy
3:00 AM 50 °F 47 °F 85% 29.75 in 16 mi SW 18.4 mph - -   Scattered Clouds
3:50 AM 50.0 °F 48.2 °F 94% 29.71 in 6.2 mi WSW 21.9 mph - N/A   Partly Cloudy
4:20 AM 50.0 °F 48.2 °F 94% 29.71 in 6.2 mi WSW 28.8 mph - N/A   Mostly Cloudy
4:50 AM 50.0 °F 48.2 °F 94% 29.71 in 6.2 mi WSW 25.3 mph - N/A   Mostly Cloudy
5:20 AM 50.0 °F 48.2 °F 94% 29.68 in 6.2 mi WSW 33.4 mph - N/A   Scattered Clouds
5:50 AM 50.0 °F 48.2 °F 94% 29.68 in 6.2 mi WSW 31.1 mph - N/A   Mostly Cloudy
6:00 AM 50 °F 48 °F 89% 29.70 in 9 mi WSW 28.8 mph - -   Mostly Cloudy
6:20 AM 51.8 °F 48.2 °F 88% 29.68 in 6.2 mi WSW 27.6 mph - N/A   Mostly Cloudy
6:50 AM 50.0 °F 48.2 °F 94% 29.65 in 6.2 mi WSW 29.9 mph - N/A   Scattered Clouds
7:20 AM 48.2 °F 44.6 °F 87% 29.65 in 6.2 mi West 29.9 mph 46.0 mph N/A   Scattered Clouds
7:50 AM 50.0 °F 46.4 °F 87% 29.65 in 1.9 mi WNW 40.3 mph 52.9 mph N/A Rain Heavy Rain Showers
8:20 AM 48.2 °F 42.8 °F 82% 29.65 in 6.2 mi West 32.2 mph - N/A   Partly Cloudy
8:50 AM 50.0 °F 44.6 °F 82% 29.68 in 6.2 mi West 28.8 mph 47.2 mph N/A   Scattered Clouds
9:00 AM 50 °F 44 °F 71% 29.70 in 7 mi West 31.1 mph - - Hail Light Hail Showers
9:20 AM 50.0 °F 42.8 °F 76% 29.68 in 6.2 mi WNW 34.5 mph 49.5 mph N/A   Scattered Clouds
9:50 AM 50.0 °F 42.8 °F 76% 29.71 in 6.2 mi West 36.8 mph 49.5 mph N/A   Scattered Clouds
10:20 AM 48.2 °F 44.6 °F 87% 29.74 in 6.2 mi West 34.5 mph 48.3 mph N/A   Partly Cloudy
10:50 AM 50.0 °F 44.6 °F 82% 29.74 in 6.2 mi West 33.4 mph 54.1 mph N/A   Scattered Clouds
11:20 AM 50.0 °F 44.6 °F 82% 29.74 in 6.2 mi West 32.2 mph 51.8 mph N/A   Partly Cloudy
11:50 AM 51.8 °F 44.6 °F 76% 29.77 in 6.2 mi West 35.7 mph 51.8 mph N/A Rain Light Rain Showers
12:00 PM 50 °F 44 °F 73% 29.78 in 6 mi West 35.7 mph - - Rain Light Rain Showers
12:20 PM 48.2 °F 44.6 °F 87% 29.77 in 3.7 mi WNW 27.6 mph 48.3 mph N/A Rain Rain Showers
12:50 PM 50.0 °F 44.6 °F 82% 29.77 in 6.2 mi West 41.4 mph 55.2 mph N/A   Scattered Clouds
1:20 PM 50.0 °F 44.6 °F 82% 29.83 in 6.2 mi WNW 31.1 mph 48.3 mph N/A   Scattered Clouds
1:50 PM 50.0 °F 42.8 °F 76% 29.86 in 6.2 mi WNW 41.4 mph - N/A   Scattered Clouds
2:20 PM 50.0 °F 44.6 °F 82% 29.89 in 6.2 mi WNW 26.5 mph 48.3 mph N/A   Mostly Cloudy
2:50 PM 50.0 °F 42.8 °F 76% 29.92 in 6.2 mi NW 33.4 mph 44.9 mph N/A   Mostly Cloudy
3:00 PM 50 °F 43 °F 69% 29.94 in 12 mi WNW 28.8 mph - -   Partly Cloudy
3:20 PM 50.0 °F 42.8 °F 76% 29.95 in 6.2 mi WNW 25.3 mph - N/A   Scattered Clouds
3:50 PM 48.2 °F 42.8 °F 82% 29.98 in 6.2 mi WNW 20.7 mph 38.0 mph N/A   Partly Cloudy
4:20 PM 50.0 °F 42.8 °F 76% 30.01 in 6.2 mi WNW 25.3 mph - N/A   Partly Cloudy
4:50 PM 48.2 °F 41.0 °F 76% 30.04 in 6.2 mi NW 18.4 mph 29.9 mph N/A   Partly Cloudy
5:20 PM 48.2 °F 41.0 °F 76% 30.06 in 6.2 mi WNW 20.7 mph - N/A   Partly Cloudy
5:50 PM 48.2 °F 41.0 °F 76% 30.06 in 6.2 mi WNW 17.3 mph - N/A   Partly Cloudy
6:00 PM 49 °F 41 °F 66% 30.10 in 16 mi WNW 20.7 mph - -   Partly Cloudy
6:20 PM 48.2 °F 41.0 °F 76% 30.09 in 6.2 mi WNW 21.9 mph - N/A   Partly Cloudy
6:50 PM 50.0 °F 42.8 °F 76% 30.12 in 6.2 mi WNW 17.3 mph - N/A   Scattered Clouds
7:20 PM 48.2 °F 41.0 °F 76% 30.15 in 6.2 mi WNW 21.9 mph - N/A   Partly Cloudy
7:50 PM 50.0 °F 42.8 °F 76% 30.15 in 6.2 mi West 25.3 mph - N/A   Partly Cloudy
8:20 PM 48.2 °F 42.8 °F 82% 30.15 in 6.2 mi West 15.0 mph - N/A   Scattered Clouds
8:50 PM 50.0 °F 42.8 °F 76% 30.18 in 6.2 mi West 13.8 mph - N/A   Partly Cloudy
9:00 PM 49 °F 43 °F 74% 30.19 in 9 mi WNW 18.4 mph - -   Scattered Clouds